EW6230 Weather Reports


time (UTC)temp
C
wind
direction
speed
KPH
gust
KPH
rain 1hr
cm
rain 24hr
cm
rain mn
cm
humidity
%
barometer
mb
20260903023055 13 237 0.0 1.6 0.00 0.00 0.00 1 998.7
20260903021604 13 237 0.0 1.6 0.00 0.00 0.00 1 998.4
20260903020043 14 233 0.0 0.0 0.00 0.00 0.00 1 998.2
20260903014543 14 233 0.0 0.0 0.00 0.00 0.00 1 998.0
20260903013034 15 233 0.0 0.0 0.00 0.00 0.00 1 997.6
20260903011540 15 233 0.0 1.6 0.00 0.00 0.00 1 997.1
20260903010029 15 226 0.0 1.6 0.00 0.00 0.00 1 997.0
20260903004531 15 200 0.0 1.6 0.00 0.00 0.00 1 996.5
20260903003021 15 160 0.0 0.0 0.00 0.00 0.00 1 996.2
20260903001516 15 160 0.0 1.6 0.00 0.00 0.00 1 996.0
20260903000011 16 251 0.0 0.0 0.00 0.00 0.00 1 996.1
20260902234507 16 252 0.0 0.0 0.00 0.00 0.00 1 996.1
20260902233006 16 252 0.0 0.0 0.00 0.00 0.00 1 996.1
20260902231558 16 251 0.0 1.6 0.00 0.00 0.00 18 996.5
20260902230053 16 255 0.0 0.0 0.00 0.00 0.00 44 996.9
20260902224549 16 227 0.0 0.0 0.00 0.00 0.00 29 996.6
20260902223045 16 227 0.0 0.0 0.00 0.00 0.00 32 996.6
20260902221540 16 227 0.0 0.0 0.00 0.00 0.00 32 996.5
20260902220035 16 227 0.0 0.0 0.00 0.00 0.00 42 996.6
20260902214531 16 227 0.0 0.0 0.00 0.00 0.00 44 996.7
20260902213026 17 227 0.0 0.0 0.00 0.00 0.00 50 997.0
20260902211522 17 227 0.0 0.0 0.00 0.00 0.00 52 997.2
20260902210018 17 227 0.0 0.0 0.00 0.00 0.00 55 997.3
20260902204524 18 227 0.0 0.0 0.00 0.00 0.00 55 997.5
20260902203008 17 227 0.0 0.0 0.00 0.00 0.00 45 997.6
20260902201506 16 227 0.0 0.0 0.00 0.00 0.00 25 997.7
20260902200117 16 227 0.0 0.0 0.00 0.00 0.00 23 997.9
20260902194559 16 227 0.0 0.0 0.00 0.00 0.00 17 998.2
20260902193051 16 227 0.0 0.0 0.00 0.00 0.00 15 998.4
20260902191549 16 227 0.0 0.0 0.00 0.00 0.00 9 998.6
20260902190042 15 226 0.0 0.0 0.00 0.00 0.00 6 998.6
20260902184538 15 226 0.0 0.0 0.00 0.00 0.00 12 998.9
20260902183043 15 226 0.0 0.0 0.00 0.00 0.00 15 999.1
20260902181526 16 226 0.0 0.0 0.00 0.00 0.00 10 999.2
20260902180022 16 226 0.0 0.0 0.00 0.00 0.00 9 999.4
20260902174518 16 224 0.0 0.0 0.00 0.00 0.00 15 999.6
20260902173013 16 236 0.0 0.0 0.00 0.00 0.00 2 999.6
20260902171508 15 236 0.0 0.0 0.00 0.00 0.00 1 999.7
20260902170008 15 236 0.0 0.0 0.00 0.00 0.00 1 999.9
20260902164605 15 236 0.0 0.0 0.00 0.00 0.00 1 1000.0
20260902163055 15 236 0.0 0.0 0.00 0.00 0.00 1 1000.2
20260902161559 14 236 0.0 0.0 0.00 0.00 0.00 1 1000.4
20260902160048 13 236 0.0 0.0 0.00 0.00 0.00 1 1000.5
20260902154557 13 236 0.0 0.0 0.00 0.00 0.00 1 1000.6
20260902153039 13 236 0.0 0.0 0.00 0.00 0.00 1 1000.7
20260902151534 13 236 0.0 0.0 0.00 0.00 0.00 1 1000.6
20260902150030 13 236 0.0 0.0 0.00 0.00 0.00 1 1000.8
20260902144523 12 236 0.0 0.0 0.00 0.00 0.00 1 1000.9
20260902143023 12 236 0.0 0.0 0.00 0.00 0.00 1 1000.9
20260902141523 12 236 0.0 0.0 0.00 0.00 0.00 1 1001.0
20260902140016 -17 0.0 0.0 0.00 0.00 0.00 1000.9
20260902134506 -17 0.0 0.0 0.00 0.00 0.00 1001.1
20260902133002 -17 0.0 0.0 0.00 0.00 0.00 1001.1
20260902131557 -17 0.0 0.0 0.00 0.00 0.00 1001.2
20260902130054 -17 0.0 0.0 0.00 0.00 0.00 1001.2
20260902124553 -17 0.0 0.0 0.00 0.00 0.00 1001.2
20260902123044 -67 232 0.0 0.0 0.00 0.00 0.00 1 1001.4
20260902121544 12 238 0.0 0.0 0.00 0.00 0.00 1 1001.5
20260902120035 12 238 0.0 0.0 0.00 0.00 0.00 1 1001.7
20260902114531 12 238 0.0 0.0 0.00 0.00 0.00 1 1001.8
20260902113026 12 238 0.0 0.0 0.00 0.00 0.00 1 1001.9
20260902111523 12 238 0.0 0.0 0.00 0.00 0.00 1 1002.1
20260902110017 12 238 0.0 0.0 0.00 0.00 0.00 1 1002.2
20260902104515 12 238 0.0 0.0 0.00 0.00 0.00 1 1002.3
20260902103008 12 238 0.0 0.0 0.00 0.00 0.00 1 1002.4
20260902101512 12 238 0.0 0.0 0.00 0.00 0.00 1 1002.6
20260902100101 12 238 0.0 0.0 0.00 0.00 0.00 1 1002.7
20260902094555 12 238 0.0 0.0 0.00 0.00 0.00 1 1003.0
20260902093118 12 238 0.0 0.0 0.00 0.00 0.00 1 1003.1
20260902091553 12 238 0.0 0.0 0.00 0.00 0.00 1 1003.4
20260902090048 12 238 0.0 0.0 0.00 0.00 0.00 1 1003.4
20260902084550 12 238 0.0 0.0 0.00 0.00 0.00 1 1003.5
20260902083046 12 238 0.0 0.0 0.00 0.00 0.00 1 1003.6
20260902081533 12 238 0.0 0.0 0.00 0.00 0.00 1 1003.6
20260902080028 12 238 0.0 0.0 0.00 0.00 0.00 1 1003.8
20260902074524 12 238 0.0 0.0 0.00 0.00 0.00 1 1003.9
20260902073019 13 238 0.0 0.0 0.00 0.00 0.00 1 1004.1
20260902071514 13 238 0.0 0.0 0.00 0.00 0.00 1 1004.3
20260902070010 13 238 0.0 0.0 0.00 0.00 0.00 1 1004.3
20260902064511 13 238 0.0 1.6 0.00 0.00 0.00 1 1004.4
20260902063001 14 238 0.0 0.0 0.00 0.00 0.00 1 1004.5
20260902061557 14 238 0.0 0.0 0.00 0.00 0.00 1 1004.5
20260902060105 14 238 0.0 0.0 0.00 0.00 0.00 1 1004.6
20260902054548 15 229 0.0 1.6 0.00 0.00 0.00 5 1004.7
20260902053044 15 229 0.0 0.0 0.00 0.00 0.00 10 1004.8
20260902051542 15 229 0.0 0.0 0.00 0.00 0.00 12 1004.9
20260902050042 15 229 0.0 0.0 0.00 0.00 0.00 14 1005.0
20260902044531 15 229 0.0 0.0 0.00 0.00 0.00 15 1005.1
20260902043026 15 229 0.0 0.0 0.00 0.00 0.00 17 1005.1
20260902041522 15 229 0.0 0.0 0.00 0.00 0.00 21 1005.2
20260902040018 15 229 0.0 0.0 0.00 0.00 0.00 27 1005.2
20260902034514 15 229 0.0 0.0 0.00 0.00 0.00 23 1005.1
20260902033008 16 229 0.0 0.0 0.00 0.00 0.00 20 1004.9
20260902031504 16 120 0.0 0.0 0.00 0.00 0.00 31 1005.1
20260902024608 16 120 0.0 0.0 0.00 0.00 0.00 44 1004.9